Regional Weather Roundup
Issued by NWS Midland/Odessa, TX

Skip options and go directly to product.
Home | Oldest Version | Previous Version | Current Version | All | Text Only | Save Text | Print | Product List | Glossary Off

Skip product version selection by date and time.   

608
ASUS44 KMAF 251810
RWRMAF
MIDLAND AREA WEATHER ROUNDUP
NATIONAL WEATHER SERVICE MIDLAND TX
100 PM CDT SAT APR 25 2015

...IN SOUTHWEST TEXAS AND SOUTHEAST NEW MEXICO...

CITY           SKY/WX    TMP DP  RH WIND       PRES   REMARKS
ALPINE         SUNNY     73  29  19 W20       30.05F
ANDREWS        FAIR      75  30  19 W17G31    29.88F
ARTESIA        SUNNY     75  32  20 VRB7G21   29.88F
BIG SPRING     SUNNY     81  28  14 W18G26    29.88F
CARLSBAD       SUNNY     77  30  17 W17G23    29.88F
DRYDEN           N/A     84  27  12 SW14G21   29.87F
FORT STOCKTON  SUNNY     78  30  17 NW10G17   29.92F
GUAD PASS      SUNNY     67  24  19 SW39G52   29.95F
HOBBS          SUNNY     72  30  21 W18G25    29.91F
MARFA          SUNNY     70  27  19 SW15G22   30.04F
MIDLAND AIRPK  SUNNY     79  32  18 W17G25    29.88F
MIDLAND INTL   SUNNY     78  33  19 W17G28    29.87F
ODESSA         SUNNY     78  30  17 NW16G23   29.88F
PECOS          SUNNY     79  31  17 W14G21    29.89F
PRESIDIO       FAIR      78  29  16 S6        29.94F
SEMINOLE       SUNNY     75  31  19 W16G28    29.89F
SNYDER         SUNNY     76  41  28 W21G26    29.84S
WINK           SUNNY     80  21  11 W22G30    29.87F
$$
...OTHER STATIONS IN TEXAS...

CITY           SKY/WX    TMP DP  RH WIND       PRES   REMARKS
ABILENE        SUNNY     81  43  26 W13G22    29.80F
AMARILLO       SUNNY     74  27  17 SW9       29.76F
AUSTIN         MOSUNNY   89  54  30 W9        29.76F
BROWNSVILLE    MOSUNNY   91  75  59 S6        29.74F HX 101
CORPUS CHRISTI CLOUDY    78  73  84 E14       29.79F
DALLAS FTW     SUNNY     83  50  31 W15       29.70F
DEL RIO        SUNNY     85  46  25 NW9G18    29.83F
EL PASO        MOSUNNY   72  23  16 SW17G28   29.95F
HOUSTON INT    MOSUNNY   81  66  60 VRB6      29.75F
LUBBOCK        SUNNY     77  34  21 W18G25    29.81F
SAN ANGELO     SUNNY     83  36  18 W16G24    29.84F
SAN ANTONIO    MOSUNNY   87  57  35 N10       29.80F
WACO           SUNNY     85  53  33 W10       29.74F
WICHITA FALLS  NOT AVBL
$$
...OTHER LOCATIONS IN NEW MEXICO...

CITY           SKY/WX    TMP DP  RH WIND       PRES   REMARKS
ALAMAGORDO     SUNNY     68  30  24 W5        29.94F
ALBUQUERQUE    PTSUNNY   57  33  40 S8        29.93F
CANNON AFB     SUNNY     71  30  22 W20G29    29.82F
CLOVIS         SUNNY     72  34  25 W21       29.82F
HOLLOMAN AFB   SUNNY     70  31  23 SW8G17    29.92F
ROSWELL        SUNNY     74  31  20 NW8       29.87F
RUIDOSO        SUNNY     57  25  28 SW7G17    30.00F
SANTA FE       MOSUNNY   58  28  32 W16G24    29.92F
TRUTH OR CONSE SUNNY     65  31  28 MISG      29.92F
TUCUMCARI      SUNNY     74  28  18 SW10G18   29.77F
$$

USA.gov is the U.S. government's official web portal to all federal, state and local government web resources and services.